PTP Borkum

Punkttermin-Prognose für Borkum
Modell: MOSMIX (Deutscher Wetterdienst)
Modelllaufzeit: 03 UTC
Aktualisierung: stündlich
Mittwoch - 16.10.2019
| Wetter - | Temperaturen | Wind | Niederschlag | Druck | Sonne
Zeit GZ | Bewölkung | TT MAX MIN TG TM | DD FF FX1 | RR1 RR24 | PPPP | SS1 SS24
02:00 Uhr | --- | --- --- --- --- --- | --- --- --- | --- | --- | ---
03:00 Uhr | --- | --- --- --- --- --- | --- --- --- | --- | --- | ---
04:00 Uhr | --- | --- --- --- --- --- | --- --- --- | --- | --- | ---
05:00 Uhr | --- | --- --- --- --- --- | --- --- --- | --- | --- | ---
06:00 Uhr | leichter Regen | 12 --- --- 12 --- | SW 13 --- | 0.3 | 1006 | 0.0
07:00 Uhr | leichter Regen | 12 --- --- 12 --- | SW 13 --- | 0.2 | 1006 | 0.0
08:00 Uhr | leichter Regen | 12 --- 12 12 --- | SW 15 --- | 0.1 | 1006 | 0.0
09:00 Uhr | bedeckt | 12 --- --- 12 --- | SW 17 --- | 0.0 | 1007 | 0.1
10:00 Uhr | stark bewölkt | 13 --- --- 12 --- | SW 18 --- | 0.0 | 1007 | 0.1
11:00 Uhr | wolkig | 13 --- --- 14 --- | SW 20 --- | 0.0 | 1007 | 0.3
12:00 Uhr | wolkig | 14 --- --- 15 --- | SW 22 --- | 0.0 | 1007 | 0.4
13:00 Uhr | wolkig | 14 --- --- 16 --- | SW 22 --- | 0.0 | 1007 | 0.5
14:00 Uhr | wolkig | 15 --- --- 16 --- | S 22 --- | 0.0 | 1006 | 0.5
15:00 Uhr | wolkig | 15 --- --- 16 --- | S 22 --- | 0.0 | 1006 | 0.5
16:00 Uhr | wolkig | 15 --- --- 16 --- | S 20 --- | 0.0 | 1006 | 0.5
17:00 Uhr | wolkig | 15 --- --- 15 --- | S 18 --- | 0.0 | 1005 | 0.3
18:00 Uhr | stark bewölkt | 15 --- --- 14 --- | S 17 --- | 0.0 | 1005 | 0.1
19:00 Uhr | stark bewölkt | 14 --- --- 14 --- | S 17 --- | 0.0 | 1005 | 0.1
20:00 Uhr | bedeckt | 14 16 --- 14 --- | S 18 --- | 0.0 | 1005 | 0.0
21:00 Uhr | leichter Regen | 14 --- --- 13 --- | S 18 --- | 0.4 | 1005 | 0.0
22:00 Uhr | leichter Regen | 14 --- --- 13 --- | S 20 --- | 0.3 | 1005 | 0.0
23:00 Uhr | leichter Regen | 14 --- --- 13 --- | S 20 --- | 0.5 | 1005 | 0.0
00:00 Uhr | leichter Regen | 14 --- --- 13 --- | S 18 --- | 0.5 | 1005 | 0.0
Donnerstag - 17.10.2019
| Wetter - | Temperaturen | Wind | Niederschlag | Druck | Sonne
Zeit GZ | Bewölkung | TT MAX MIN TG TM | DD FF FX1 | RR1 RR24 | PPPP | SS1 SS24
01:00 Uhr | leichter Regen | 14 --- --- 13 --- | SW 18 --- | 0.4 | 1005 | 0.0
02:00 Uhr | leichter Regen | 14 --- --- 13 --- | SW 17 --- | 0.4 | 1006 | 0.0
03:00 Uhr | leichter Regen | 14 --- --- 13 --- | SW 17 --- | 0.4 | 1006 | 0.0
04:00 Uhr | leichter Regen | 13 --- --- 13 --- | SW 15 --- | 0.4 | 1006 | 0.0
05:00 Uhr | leichter Regen | 13 --- --- 12 --- | SW 15 --- | 0.2 | 1006 | 0.0
06:00 Uhr | stark bewölkt | 13 --- --- 12 --- | SW 15 --- | 0.0 | 1006 | 0.0
07:00 Uhr | wolkig | 12 --- --- 12 --- | SW 15 --- | 0.0 | 1007 | 0.0
08:00 Uhr | wolkig | 12 --- 12 12 --- | SW 15 --- | 0.0 | 1008 | 0.0
09:00 Uhr | wolkig | 12 --- --- 12 --- | SW 15 --- | 0.0 | 1008 | 0.2
10:00 Uhr | wolkig | 13 --- --- 13 --- | SW 15 --- | 0.0 | 1009 | 0.3
11:00 Uhr | wolkig | 13 --- --- 14 --- | SW 15 --- | 0.0 | 1009 | 0.4
12:00 Uhr | wolkig | 14 --- --- 15 --- | SW 15 --- | 0.0 | 1010 | 0.5
13:00 Uhr | wolkig | 14 --- --- 15 --- | SW 17 --- | 0.0 | 1010 | 0.5
14:00 Uhr | wolkig | 15 --- --- 16 --- | SW 15 --- | 0.0 | 1010 | 0.5
15:00 Uhr | wolkig | 15 --- --- 16 --- | SW 15 --- | 0.0 | 1010 | 0.5
16:00 Uhr | wolkig | 14 --- --- 15 --- | SW 13 --- | 0.0 | 1009 | 0.4
17:00 Uhr | wolkig | 14 --- --- 14 --- | SW 13 --- | 0.0 | 1010 | 0.3
18:00 Uhr | wolkig | 13 --- --- 13 --- | S 11 --- | 0.0 | 1009 | 0.2
19:00 Uhr | wolkig | 12 --- --- 13 --- | S 9 --- | 0.0 | 1009 | 0.1
20:00 Uhr | wolkig | 12 15 --- 12 --- | S 9 --- | 0.0 | 1010 | 0.0
21:00 Uhr | wolkig | 12 --- --- 12 --- | S 9 --- | 0.0 | 1009 | 0.0
22:00 Uhr | wolkig | 12 --- --- 11 --- | S 11 --- | 0.0 | 1009 | 0.0
23:00 Uhr | wolkig | 11 --- --- 11 | S 11 --- | 0.0 | 1010 | 0.0
00:00 Uhr | wolkig | 11 --- --- 10 13 | S 11 --- | 0.0 1.8 | 1009 | 0.0 3.8
Freitag - 18.10.2019
| Wetter - | Temperaturen | Wind | Niederschlag | Druck | Sonne
Zeit GZ | Bewölkung | TT MAX MIN TG TM | DD FF FX1 | RR1 RR24 | PPPP | SS1 SS24
01:00 Uhr | wolkig | 11 --- --- 10 --- | S 11 --- | 0.0 | 1009 | 0.0
02:00 Uhr | wolkig | 11 --- --- 10 --- | S 11 --- | 0.0 | 1008 | 0.0
03:00 Uhr | wolkig | 11 --- --- 10 --- | S 11 --- | 0.0 | 1008 | 0.0
04:00 Uhr | wolkig | 11 --- --- 10 --- | S 11 --- | 0.0 | 1008 | 0.0
05:00 Uhr | wolkig | 12 --- --- 10 --- | S 13 --- | 0.0 | 1008 | 0.0
06:00 Uhr | wolkig | 11 --- --- 10 --- | S 13 --- | 0.0 | 1008 | 0.0
07:00 Uhr | wolkig | 11 --- --- 10 --- | S 15 --- | 0.0 | 1007 | 0.0
08:00 Uhr | wolkig | 12 --- 10 10 --- | S 17 --- | 0.0 | 1007 | 0.0
09:00 Uhr | wolkig | 12 --- --- 11 --- | S 20 --- | 0.0 | 1007 | 0.1
10:00 Uhr | wolkig | 12 --- --- 12 --- | S 20 --- | 0.0 | 1007 | 0.2
11:00 Uhr | wolkig | 12 --- --- 12 --- | S 22 --- | 0.0 | 1006 | 0.3
12:00 Uhr | wolkig | 13 --- --- 13 --- | S 22 --- | 0.0 | 1006 | 0.3
13:00 Uhr | wolkig | 14 --- --- 13 --- | S 24 41 | 0.0 | 1006 | 0.3
14:00 Uhr | wolkig | 14 --- --- 14 --- | S 24 --- | 0.0 | 1006 | 0.3
15:00 Uhr | wolkig | 14 --- --- 14 --- | S 26 43 | 0.0 | 1005 | 0.4
16:00 Uhr | wolkig | 14 --- --- 14 --- | S 24 43 | 0.0 | 1005 | 0.3
17:00 Uhr | wolkig | 13 --- --- 14 --- | S 22 41 | 0.0 | 1005 | 0.3
18:00 Uhr | wolkig | 13 --- --- 13 --- | S 22 --- | 0.0 | 1005 | 0.2
19:00 Uhr | wolkig | 13 --- --- 12 --- | S 20 --- | 0.0 | 1005 | 0.1
20:00 Uhr | wolkig | 12 15 --- 12 --- | S 20 --- | 0.0 | 1005 | 0.0
21:00 Uhr | wolkig | 12 --- --- 11 --- | S 18 --- | 0.0 | 1005 | 0.0
22:00 Uhr | wolkig | 12 --- --- 11 --- | S 20 --- | 0.0 | 1006 | 0.0
23:00 Uhr | wolkig | 11 --- --- 11 | S 20 --- | 0.0 | 1006 | 0.0
00:00 Uhr | wolkig | 11 --- --- 11 12 | S 18 --- | 0.0 0.0 | 1006 | 0.0 2.9
Samstag - 19.10.2019
| Wetter - | Temperaturen | Wind | Niederschlag | Druck | Sonne
Zeit GZ | Bewölkung | TT MAX MIN TG TM | DD FF FX3 | RR3 RR24 | PPPP | SS3 SS24
02:00 Uhr | wolkig | 12 --- --- 10 --- | S 17 --- | 0.0 | 1006 | 0.0
05:00 Uhr | wolkig | 11 --- --- 10 --- | S 17 --- | 0.0 | 1006 | 0.0
08:00 Uhr | wolkig | 11 --- 10 10 --- | S 17 --- | 0.0 | 1006 | 0.0
11:00 Uhr | wolkig | 11 --- --- 11 --- | S 17 --- | 0.0 | 1006 | 0.5
14:00 Uhr | wolkig | 13 --- --- 13 --- | S 18 --- | 0.0 | 1006 | 0.9
17:00 Uhr | wolkig | 13 --- --- 12 --- | S 15 --- | 0.0 | 1006 | 0.7
20:00 Uhr | wolkig | 11 14 --- 11 --- | SO 13 --- | 0.0 | 1006 | 0.2
23:00 Uhr | wolkig | 11 --- --- 11 11 | S 15 --- | 0.0 0.0 | 1006 | 0.0 2.3
Sonntag - 20.10.2019
| Wetter - | Temperaturen | Wind | Niederschlag | Druck | Sonne
Zeit GZ | Bewölkung | TT MAX MIN TG TM | DD FF FX3 | RR3 RR24 | PPPP | SS3 SS24
02:00 Uhr | wolkig | 11 --- --- 10 --- | S 13 --- | 0.0 | 1006 | 0.0
05:00 Uhr | wolkig | 10 --- --- 10 --- | S 13 --- | 0.0 | 1006 | 0.0
08:00 Uhr | wolkig | 10 --- 9 10 --- | S 15 --- | 0.0 | 1006 | 0.0
11:00 Uhr | wolkig | 12 --- --- 12 --- | S 17 --- | 0.0 | 1007 | 0.5
14:00 Uhr | wolkig | 14 --- --- 14 --- | S 18 --- | 0.0 | 1008 | 1.0
17:00 Uhr | wolkig | 13 --- --- 13 --- | S 15 --- | 0.0 | 1009 | 0.9
20:00 Uhr | wolkig | 11 14 --- 11 --- | S 11 --- | 0.0 | 1010 | 0.3
23:00 Uhr | wolkig | 10 --- --- 10 11 | S 11 --- | 0.0 0.0 | 1011 | 0.0 2.7
Montag - 21.10.2019
| Wetter - | Temperaturen | Wind | Niederschlag | Druck | Sonne
Zeit GZ | Bewölkung | TT MAX MIN TG TM | DD FF FX3 | RR3 RR24 | PPPP | SS3 SS24
02:00 Uhr | wolkig | 9 --- --- 10 --- | S 11 --- | 0.0 | 1013 | 0.0
05:00 Uhr | wolkig | 9 --- --- 9 --- | SO 11 --- | 0.0 | 1013 | 0.0
08:00 Uhr | wolkig | 9 --- 8 9 --- | S 11 --- | 0.0 | 1014 | 0.0
11:00 Uhr | wolkig | 11 --- --- 12 --- | S 13 --- | 0.0 | 1015 | 0.5
14:00 Uhr | wolkig | 14 --- --- 15 --- | S 15 --- | 0.0 | 1016 | 1.0
17:00 Uhr | wolkig | 13 --- --- 14 --- | S 13 --- | 0.0 | 1016 | 1.1
20:00 Uhr | wolkig | 11 14 --- 11 --- | S 11 --- | 0.0 | 1018 | 0.4
23:00 Uhr | wolkig | 10 --- --- 11 11 | S 11 --- | 0.0 0.0 | 1018 | 0.0 3.0
Dienstag - 22.10.2019
| Wetter - | Temperaturen | Wind | Niederschlag | Druck | Sonne
Zeit GZ | Bewölkung | TT MAX MIN TG TM | DD FF FX3 | RR3 RR24 | PPPP | SS3 SS24
02:00 Uhr | wolkig | 10 --- --- 10 --- | S 11 --- | 0.0 | 1019 | 0.0
05:00 Uhr | wolkig | 9 --- --- 9 --- | S 11 --- | 0.0 | 1019 | 0.0
08:00 Uhr | wolkig | 9 --- 8 9 --- | S 13 --- | 0.0 | 1019 | 0.0
11:00 Uhr | wolkig | 12 --- --- 12 --- | S 15 --- | 0.0 | 1020 | 0.5
14:00 Uhr | wolkig | 14 --- --- 14 --- | SW 17 --- | 0.0 | 1020 | 1.1
17:00 Uhr | wolkig | 13 --- --- 13 --- | SW 15 --- | 0.0 | 1019 | 0.9
20:00 Uhr | wolkig | 11 15 --- 11 --- | S 13 --- | 0.0 | 1019 | 0.3
23:00 Uhr | wolkig | 10 --- --- 10 11 | S 13 --- | 0.0 0.0 | 1019 | 0.0 2.8
Mittwoch - 23.10.2019
| Wetter - | Temperaturen | Wind | Niederschlag | Druck | Sonne
Zeit GZ | Bewölkung | TT MAX MIN TG TM | DD FF FX3 | RR3 RR24 | PPPP | SS3 SS24
02:00 Uhr | wolkig | 9 --- --- 10 --- | S 11 --- | 0.0 | 1019 | 0.0
05:00 Uhr | wolkig | 8 --- --- 10 --- | S 11 --- | 0.0 | 1018 | 0.0
08:00 Uhr | wolkig | 9 --- 7 9 --- | S 13 --- | 0.0 | 1018 | 0.0
11:00 Uhr | wolkig | 12 --- --- 11 --- | S 15 --- | 0.0 | 1019 | 0.6
14:00 Uhr | wolkig | 13 --- --- 13 --- | S 17 --- | 0.0 | 1018 | 1.0
17:00 Uhr | wolkig | 13 --- --- 11 --- | SW 15 --- | 0.0 | 1018 | 0.9
20:00 Uhr | wolkig | 11 15 --- 10 --- | S 15 --- | 0.0 | 1018 | 0.3
23:00 Uhr | wolkig | 10 --- --- 10 11 | SW 13 --- | 0.0 0.0 | 1018 | 0.0 2.8
Donnerstag - 24.10.2019
| Wetter - | Temperaturen | Wind | Niederschlag | Druck | Sonne
Zeit GZ | Bewölkung | TT MAX MIN TG TM | DD FF FX3 | RR3 RR24 | PPPP | SS3 SS24
02:00 Uhr | wolkig | 10 --- --- 11 --- | S 15 --- | 0.0 | 1018 | 0.0
05:00 Uhr | wolkig | 9 --- --- 11 --- | SW 13 --- | 0.0 | 1017 | 0.0
08:00 Uhr | wolkig | 9 --- 8 10 --- | SW 15 --- | 0.0 | 1017 | 0.0
11:00 Uhr | wolkig | 11 --- --- 12 --- | SW 17 --- | 0.0 | 1017 | 0.5
14:00 Uhr | wolkig | 14 --- --- 14 --- | SW 20 --- | 0.0 | 1016 | 1.0
17:00 Uhr | wolkig | 13 --- --- 13 --- | SW 18 --- | 0.0 | 1016 | 0.9
20:00 Uhr | wolkig | 11 15 --- 12 --- | SW 13 --- | 0.0 | 1016 | 0.3
23:00 Uhr | wolkig | 10 --- --- 11 11 | SW 13 --- | 0.0 0.0 | 1016 | 0.0 2.6
Freitag - 25.10.2019
| Wetter - | Temperaturen | Wind | Niederschlag | Druck | Sonne
Zeit GZ | Bewölkung | TT MAX MIN TG TM | DD FF FX3 | RR3 RR24 | PPPP | SS3 SS24
02:00 Uhr | wolkig | 10 --- --- 11 --- | SW 15 --- | 0.0 | 1016 | 0.0
05:00 Uhr | wolkig | 10 --- --- 10 --- | SW 13 --- | 0.0 | 1015 | 0.0
08:00 Uhr | wolkig | 11 --- 8 10 --- | SW 15 --- | 0.0 | 1015 | 0.0
11:00 Uhr | wolkig | 12 --- --- 11 --- | SW 17 --- | 0.0 | 1016 | 0.5
14:00 Uhr | wolkig | 14 --- --- 13 --- | SW 18 --- | 0.0 | 1015 | 0.7
17:00 Uhr | wolkig | 13 --- --- 13 --- | SW 17 --- | 0.0 | 1015 | 0.6
20:00 Uhr | wolkig | 12 15 --- 12 --- | SW 17 --- | 0.0 | 1015 | 0.3
23:00 Uhr | wolkig | 10 --- --- 12 11 | SW 15 --- | 0.0 0.0 | 1015 | 0.0 2.0
Samstag - 26.10.2019
| Wetter - | Temperaturen | Wind | Niederschlag | Druck | Sonne
Zeit GZ | Bewölkung | TT MAX MIN TG TM | DD FF FX3 | RR3 RR24 | PPPP | SS3 SS24
02:00 Uhr | wolkig | 10 --- --- 11 --- | SW 17 --- | 0.0 | 1013 | 0.0
05:00 Uhr | wolkig | 9 --- --- 11 --- | S 17 --- | 0.0 | 1013 | 0.0
---:00 Uhr | --- | --- --- --- --- --- | --- --- --- | --- | --- | ---
---:00 Uhr | --- | --- --- --- --- --- | --- --- --- | --- | --- | ---
---:00 Uhr | --- | --- --- --- --- --- | --- --- --- | --- | --- | ---
---:00 Uhr | --- | --- --- --- --- --- | --- --- --- | --- | --- | ---
---:00 Uhr | --- | --- --- --- --- --- | --- --- --- | --- | --- | ---
---:00 Uhr | --- | --- --- --- --- --- | --- --- --- | --- --- | --- | ---


Wetter : Wetter/Bewölkung zum Termin (aktuelle Stunde) TT : Lufttemperatur in Grad Celsius zum Termin MAX : Maximum Lufttemperatur in Grad Celsius letzte 12 Stunden MIN : Minimum Lufttemperatur der vergangenen Nacht in Grad Celsius letzte 12 Stunden TG : Temperatur in 5cm überm Erdboden TM : Tagesmittel Lufttemperatur in Grad Celsius letzte 24 Stunden DD : Windrichtung zum Termin FF : Windgeschwindigkeit zum Termin FX1 : höchste Windspitze im Bezugszeitraum letzte 1 Stunde in km/h FX3 : höchste Windspitze im Bezugszeitraum letzte 3 Stunden in km/h PPPP : reduzierter Luftdruck auf Meereshöhe in hPa zum Termin RR1 : Niederschlagsmenge im Bezugszeitraum letzte 1 Stunde in mm = l/qm RR3 : Niederschlagsmenge im Bezugszeitraum letzte 3 Stunden in mm = l/qm RR24 : Niederschlagsmenge im Bezugszeitraum letzte 24 Stunden in mm = l/qm SS1 : Sonnenscheindauer letzte 1 Stunde SS3 : Sonnenscheindauer letzte 3 Stunden SS24 : Sonnenscheindauer letzte 24 Stunden --- : Wert nicht vorhanden